Погода в Бродках

Россия / Липецкая область     52°49′28″N   38°27′38″E
темп.,
°C
ветер,
м/с
пор.,
м/с
влажн.,
%
обл.,
%
осадки,
мм/ч
давл.,
гПа
погр.,
м
29 июня, ср
ср2900:00+16св377891 0.0 1020118
03:00+14св358586 0.0 102091
06:00+14св35830 0.0 1021146
09:00+19всв45695 0.0 1021658
12:00+21всв544719 0.0 10211635
15:00+21св334699 0.0 10201716
18:00+20ссв335527 0.0 10201498
21:00+15св347279 0.0 102057
30 июня, чт
чт3000:00+13всв337318 0.0 102034
03:00+12всв22780 0.0 102017
06:00+14св23770 0.0 101987
09:00+19св22580 0.0 1019561
12:00+21ссв33474 0.0 10181694
15:00+22с454824 0.0 10172050
18:00+21ссв4659100 0.0 10171309
21:00+16ссз337485 0.0 101728
1 июля, пт
пт100:00+14сз46740 0.0 101792
03:00+13ссз35800 0.0 101779
06:00+14ссз48770 0.0 1018191
09:00+19с68621 0.0 1018701
12:00+21ссв79490 0.0 10181876
15:00+21ссв79474 0.0 10192069
18:00+19ссв58560 0.0 10191705
21:00+14ссв22700 0.0 102016
2 июля, сб
сб200:00+12ссз22761 0.0 102112
03:00+11ссз33772 0.0 102139
06:00+12ссз36783 0.0 1021163
09:00+18с46575 0.0 1020631
12:00+21с46465 0.0 10191388
15:00+23ссз46475 0.0 10181529
18:00+23сз476022 0.0 10171088
21:00+20зсз61175100 0.1 1016355
3 июля, вс
вс300:00+17сз615915 0.8 1015323
03:00+16ссз410951 0.8 1014164
06:00+18ссз410920 0.0 1015246
09:00+22с57710 0.0 1015571
12:00+25с68540 0.0 10151482
15:00+26с67495 0.0 10151682
18:00+24ссв4662100 0.0 1015593
21:00+19св1178100 0.0 101511